DW7779 Weather Reports


time (UTC)temp
F
wind
direction
speed
knots
gust
knots
rain 1hr
in
rain 24hr
in
rain mn
in
humidity
%
barometer
mb
20260904051548 61 1.7 6.1 0.00 0.00 0.00 67 1014.1
20260904050047 61 4.3 7.8 0.00 0.00 0.00 65 1014.3
20260904044548 61 2.6 7.8 0.00 0.00 0.00 66 1014.3
20260904043054 61 2.6 7.0 0.00 0.00 0.00 64 1014.3
20260904041543 61 3.5 7.8 0.00 0.00 0.00 63 1014.5
20260904040043 61 3.5 6.1 0.00 0.00 0.00 62 1014.5
20260904034641 61 2.6 7.8 0.00 0.00 0.00 60 1014.5
20260904033039 61 4.3 8.7 0.00 0.00 0.00 59 1015.0
20260904031535 61 3.5 7.8 0.00 0.00 0.00 60 1015.2
20260904030050 59 3.5 7.0 0.00 0.00 0.00 61 1015.3
20260904024532 61 3.5 8.7 0.00 0.00 0.00 58 1015.6
20260904023028 59 3.5 7.0 0.00 0.00 0.00 60 1016.0
20260904021529 58 2.6 7.8 0.00 0.00 0.00 61 1016.4
20260904020022 58 3.5 8.7 0.00 0.00 0.00 59 1016.7
20260904014519 58 4.3 8.7 0.00 0.00 0.00 60 1017.0
20260904013018 57 4.3 7.0 0.00 0.00 0.00 60 1017.2
20260904011516 57 4.3 8.7 0.00 0.00 0.00 59 1017.3
20260904010018 56 5.2 9.6 0.00 0.00 0.00 62 1017.5
20260904004515 56 3.5 10.4 0.00 0.02 0.00 60 1017.6
20260904003013 56 4.3 9.6 0.00 0.02 0.00 63 1018.0
20260904001512 56 5.2 9.6 0.00 0.02 0.00 60 1018.3
20260904000010 56 2.6 8.7 0.00 0.02 0.00 64 1018.3
20260903234509 55 2.6 6.1 0.00 0.04 0.00 65 1018.5
20260903233110 54 3.5 7.0 0.00 0.04 0.00 70 1018.5
20260903231603 53 2.6 8.7 0.00 0.04 0.00 73 1018.3
20260903230056 51 2.6 7.0 0.00 0.04 0.00 77 1018.7
20260903224555 49 0.9 3.5 0.00 0.04 0.00 82 1018.8
20260903223051 46 0.9 2.6 0.00 0.04 0.00 85 1018.8
20260903221544 44 0.0 2.6 0.00 0.04 0.00 88 1018.6
20260903220046 42 0.0 0.0 0.00 0.04 0.00 90 1018.6
20260903214540 40 0.0 0.0 0.00 0.04 0.00 93 1018.3
20260903213143 38 0.0 0.0 0.00 0.04 0.00 93 1018.1
20260903211547 38 0.0 0.0 0.00 0.04 0.00 93 1017.8
20260903210051 37 0.0 0.0 0.00 0.04 0.00 92 1017.7
20260903204535 37 0.0 0.0 0.00 0.04 0.00 92 1017.6
20260903203034 38 0.0 0.0 0.00 0.04 0.00 91 1017.5
20260903201533 38 0.0 0.0 0.00 0.04 0.00 90 1017.5
20260903200029 39 0.0 0.0 0.00 0.04 0.00 89 1017.4
20260903194534 41 0.0 0.0 0.00 0.04 0.00 87 1017.3
20260903193028 40 0.0 0.9 0.00 0.04 0.00 88 1017.3
20260903191531 40 0.0 0.0 0.00 0.04 0.00 89 1017.3
20260903190021 41 0.0 0.0 0.00 0.04 0.00 88 1017.2
20260903184520 41 0.0 0.9 0.00 0.04 0.00 87 1017.1
20260903183019 41 0.0 0.9 0.00 0.04 0.00 88 1017.0
20260903181517 42 0.0 0.9 0.00 0.04 0.00 87 1016.9
20260903180022 42 0.0 1.7 0.00 0.04 0.00 88 1017.1
20260903174518 42 0.0 1.7 0.00 0.04 0.00 88 1017.1
20260903173011 42 0.0 1.7 0.00 0.04 0.00 88 1017.2
20260903171614 42 0.0 1.7 0.00 0.04 0.00 87 1017.4
20260903170008 43 0.9 2.6 0.00 0.04 0.00 86 1017.6
20260903164507 43 0.9 4.3 0.00 0.04 0.00 87 1017.6
20260903163005 43 0.9 2.6 0.00 0.04 0.00 88 1017.8
20260903161503 43 1.7 3.5 0.00 0.04 0.00 88 1017.9
20260903160100 43 0.9 4.3 0.00 0.04 0.00 89 1018.0
20260903154559 42 0.0 1.7 0.00 0.04 0.00 90 1018.2
20260903153107 42 0.0 1.7 0.00 0.04 0.00 89 1018.2
20260903151658 42 0.0 1.7 0.00 0.04 0.00 91 1018.4
20260903150101 42 0.0 1.7 0.00 0.04 0.00 91 1018.5
20260903144555 42 0.0 0.0 0.00 0.04 0.00 91 1018.5
20260903143053 42 0.0 0.0 0.00 0.04 0.00 92 1018.5
20260903141550 42 0.0 0.0 0.00 0.04 0.00 91 1018.5
20260903140050 43 0.0 0.0 0.00 0.04 0.00 90 1018.5
20260903134547 44 0.0 0.0 0.00 0.04 0.04 89 1018.5
20260903133046 44 0.0 0.0 0.00 0.04 0.04 89 1018.4
20260903131540 45 0.0 2.6 0.00 0.04 0.04 88 1018.4
20260903130042 45 0.9 1.7 0.00 0.04 0.04 88 1018.4
20260903124535 46 0.9 2.6 0.00 0.04 0.04 86 1018.4
20260903123033 47 0.9 1.7 0.00 0.04 0.04 87 1018.4
20260903121532 46 0.0 0.0 0.00 0.04 0.04 87 1018.3
20260903120034 47 0.0 0.9 0.00 0.04 0.04 87 1018.4
20260903114530 47 0.0 0.0 0.00 0.04 0.04 87 1018.4
20260903113028 47 0.9 1.7 0.00 0.04 0.04 88 1018.3
20260903111527 48 0.0 0.9 0.00 0.04 0.04 87 1018.2
20260903110127 48 0.0 1.7 0.00 0.04 0.04 86 1017.9
20260903104523 49 0.0 1.7 0.00 0.04 0.04 85 1017.8
20260903103021 49 0.0 0.9 0.00 0.04 0.04 84 1017.5
20260903101538 49 0.0 0.9 0.00 0.04 0.04 85 1017.3
20260903100024 49 0.0 0.9 0.00 0.04 0.04 84 1017.2
20260903094516 49 0.0 0.9 0.00 0.04 0.04 84 1016.9
20260903093015 50 0.0 0.9 0.00 0.04 0.04 83 1016.9
20260903091514 50 0.0 0.9 0.00 0.04 0.04 82 1016.7
20260903090011 51 0.0 0.9 0.00 0.04 0.04 80 1016.5
20260903084525 52 0.0 1.7 0.00 0.04 0.04 78 1016.4
20260903083017 52 0.0 1.7 0.00 0.04 0.04 77 1016.1
20260903081506 53 0.0 1.7 0.00 0.04 0.04 75 1015.6
20260903080010 54 0.0 0.9 0.00 0.04 0.04 73 1015.3
20260903074504 55 0.0 1.7 0.00 0.04 0.04 71 1015.2
20260903073101 56 0.0 0.9 0.00 0.04 0.04 70 1015.0
20260903071558 57 0.0 3.5 0.00 0.04 0.04 69 1014.8
20260903070057 57 0.0 2.6 0.00 0.04 0.04 68 1014.5
20260903064603 58 0.9 3.5 0.00 0.04 0.04 67 1014.3
20260903063051 59 0.9 4.3 0.00 0.04 0.04 66 1014.0
20260903061551 60 1.7 5.2 0.00 0.04 0.04 64 1013.7
20260903060053 60 2.6 7.8 0.00 0.04 0.04 64 1013.6
20260903054547 60 1.7 6.1 0.00 0.04 0.04 64 1013.5
20260903053148 59 2.6 4.3 0.00 0.04 0.04 63 1013.2